EW9259 Weather Reports


time (UTC)temp
C
wind
direction
speed
KPH
gust
KPH
rain 1hr
cm
rain 24hr
cm
rain mn
cm
humidity
%
barometer
mb
20260510061004 22 0 0.0 0.0 0.00 0.00 0.00 76 1010.9
20260510060504 22 0 0.0 0.0 0.00 0.00 0.00 75 1011.0
20260510060006 22 0 0.0 0.0 0.00 0.00 0.00 75 1011.0
20260510055505 22 0 0.0 0.0 0.00 0.00 0.00 74 1011.0
20260510055004 22 0 0.0 0.0 0.00 0.00 0.00 74 1011.0
20260510054505 22 0 0.0 0.0 0.00 0.00 0.00 74 1011.0
20260510054005 22 0 0.0 0.0 0.00 0.00 0.00 74 1011.1
20260510053505 22 0 0.0 0.0 0.00 0.00 0.00 74 1011.1
20260510053005 22 0 0.0 0.0 0.00 0.00 0.00 73 1011.0
20260510052505 22 0 0.0 0.0 0.00 0.00 0.00 73 1011.1
20260510052005 22 0 0.0 0.0 0.00 0.00 0.00 73 1011.1
20260510051504 22 0 0.0 0.0 0.00 0.00 0.00 73 1011.1
20260510051005 22 0 0.0 0.0 0.00 0.00 0.00 73 1011.1
20260510050505 22 0 0.0 0.0 0.00 0.00 0.00 73 1011.0
20260510045504 22 0 0.0 0.0 0.00 0.00 0.00 72 1011.1
20260510044005 23 0 0.0 0.0 0.00 0.00 0.00 71 1011.2
20260510043504 23 0 0.0 0.0 0.00 0.00 0.00 71 1011.2
20260510043004 23 0 0.0 0.0 0.00 0.00 0.00 71 1011.2
20260510042506 23 0 0.0 0.0 0.00 0.00 0.00 71 1011.3
20260510042005 23 0 0.0 0.0 0.00 0.00 0.00 70 1011.2
20260510041504 23 0 0.0 0.0 0.00 0.00 0.00 70 1011.2
20260510041005 23 0 0.0 0.0 0.00 0.00 0.00 70 1011.2
20260510040504 23 0 0.0 0.0 0.00 0.00 0.00 70 1011.2
20260510035504 23 0 0.0 0.0 0.00 0.00 0.00 68 1011.1
20260510035005 23 0 0.0 0.0 0.00 0.00 0.00 67 1011.2
20260510034505 24 0 0.0 0.0 0.00 0.00 0.00 66 1011.1
20260510034004 24 0 0.0 0.0 0.00 0.00 0.00 65 1011.1
20260510033005 25 0 0.0 0.0 0.00 0.00 0.00 65 1011.2
20260510032504 25 0 0.0 0.0 0.00 0.00 0.00 65 1011.1
20260510032004 25 0 0.0 0.0 0.00 0.00 0.00 64 1011.0
20260510031505 25 0 0.0 0.0 0.00 0.00 0.00 64 1011.1
20260510031005 26 0 0.0 0.0 0.00 0.00 0.00 63 1011.0
20260510030504 26 0 0.0 0.0 0.00 0.00 0.00 62 1011.0
20260510030005 26 0 0.0 0.0 0.00 0.00 0.00 60 1010.8
20260510025004 27 0 0.0 0.0 0.00 0.00 0.00 58 1010.7
20260510024005 27 0 0.0 0.0 0.00 0.00 0.00 57 1010.5
20260510023004 27 0 0.0 0.0 0.00 0.00 0.00 56 1010.2
20260510022505 27 0 0.0 1.6 0.00 0.00 0.00 55 1010.1
20260510022005 28 0 0.0 1.6 0.00 0.00 0.00 55 1010.3
20260510021504 28 0 0.0 0.0 0.00 0.00 0.00 54 1010.2
20260510021005 28 0 0.0 0.0 0.00 0.00 0.00 53 1010.1
20260510020504 28 0 0.0 0.0 0.00 0.00 0.00 52 1010.1
20260510020005 28 0 0.0 0.0 0.00 0.00 0.00 51 1009.9
20260510015505 28 0 0.0 0.0 0.00 0.00 0.00 50 1009.7
20260510015004 28 0 0.0 0.0 0.00 0.00 0.00 49 1009.6
20260510014505 29 0 0.0 0.0 0.00 0.00 0.00 48 1009.6
20260510014004 29 0 0.0 0.0 0.00 0.00 0.00 48 1009.5
20260510013504 29 0 0.0 0.0 0.00 0.00 0.00 47 1009.5
20260510013004 30 0 0.0 0.0 0.00 0.00 0.00 47 1009.4
20260510012505 30 0 0.0 0.0 0.00 0.00 0.00 46 1009.3
20260510012004 30 0 0.0 0.0 0.00 0.00 0.00 46 1009.3
20260510011507 30 0 0.0 0.0 0.00 0.00 0.00 45 1009.3
20260510011004 30 0 0.0 0.0 0.00 0.00 0.00 45 1009.3
20260510010505 31 0 0.0 0.0 0.00 0.00 0.00 44 1009.2
20260510010007 31 157 1.6 8.0 0.00 0.00 0.00 43 1009.1
20260510005504 31 158 3.2 11.3 0.00 0.00 0.00 43 1009.0
20260510004505 31 161 4.8 11.3 0.00 0.00 0.00 42 1009.2
20260510004004 31 152 4.8 11.3 0.00 0.00 0.00 43 1009.0
20260510003504 31 156 4.8 11.3 0.00 0.00 0.00 43 1009.0
20260510003005 31 160 4.8 12.9 0.00 0.00 0.00 43 1009.0
20260510001505 31 150 4.8 11.3 0.00 0.00 0.00 40 1009.2
20260510001005 31 149 1.6 8.0 0.00 0.00 0.00 39 1009.1
20260510000504 31 150 1.6 9.7 0.00 0.00 0.00 40 1009.1
20260510000005 31 156 3.2 11.3 0.00 0.00 0.00 38 1009.1
20260509235504 32 157 6.4 12.9 0.00 0.00 0.00 39 1009.0
20260509235004 32 159 8.0 14.5 0.00 0.00 0.00 37 1009.0
20260509234504 32 160 8.0 16.1 0.00 0.00 0.00 33 1008.9
20260509234005 32 156 8.0 16.1 0.00 0.00 0.00 38 1009.0
20260509233505 32 157 8.0 16.1 0.00 0.00 0.00 41 1009.0
20260509233004 32 155 8.0 16.1 0.00 0.00 0.00 41 1009.1
20260509232505 32 154 4.8 14.5 0.00 0.00 0.00 37 1009.2
20260509231505 32 176 1.6 14.5 0.00 0.00 0.00 34 1009.1
20260509231004 32 176 3.2 14.5 0.00 0.00 0.00 34 1009.3
20260509230504 32 162 4.8 11.3 0.00 0.00 0.00 36 1009.3
20260509225504 32 166 3.2 11.3 0.00 0.00 0.00 38 1009.3
20260509225004 32 164 4.8 12.9 0.00 0.00 0.00 39 1009.3
20260509224505 32 160 4.8 12.9 0.00 0.00 0.00 36 1009.3
20260509223504 32 161 6.4 14.5 0.00 0.00 0.00 40 1009.2
20260509223004 32 158 6.4 14.5 0.00 0.00 0.00 38 1009.3
20260509222005 32 163 4.8 17.7 0.00 0.00 0.00 42 1009.3
20260509221504 32 160 4.8 17.7 0.00 0.00 0.00 40 1009.3
20260509221004 32 157 3.2 12.9 0.00 0.00 0.00 41 1009.3
20260509220504 32 0 0.0 3.2 0.00 0.00 0.00 44 1009.4
20260509220005 32 0 0.0 4.8 0.00 0.00 0.00 45 1009.5
20260509215504 32 0 0.0 9.7 0.00 0.00 0.00 44 1009.6
20260509215004 32 206 1.6 12.9 0.00 0.00 0.00 45 1009.6
20260509214505 32 212 3.2 12.9 0.00 0.00 0.00 46 1009.6
20260509214005 32 222 1.6 12.9 0.00 0.00 0.00 47 1009.7
20260509213504 32 0 0.0 3.2 0.00 0.00 0.00 46 1009.8
20260509213005 32 0 0.0 3.2 0.00 0.00 0.00 45 1009.8
20260509212504 32 0 0.0 6.4 0.00 0.00 0.00 44 1009.9
20260509212005 32 0 0.0 6.4 0.00 0.00 0.00 44 1010.0
20260509211504 32 0 0.0 1.6 0.00 0.00 0.00 46 1010.1
20260509211004 32 229 1.6 12.9 0.00 0.00 0.00 45 1010.2
20260509210504 31 198 1.6 12.9 0.00 0.00 0.00 46 1010.3
20260509210005 31 172 4.8 16.1 0.00 0.00 0.00 46 1010.2
20260509205504 31 176 6.4 16.1 0.00 0.00 0.00 48 1010.2
20260509205004 31 181 6.4 16.1 0.00 0.00 0.00 49 1010.3
20260509204505 31 199 6.4 16.1 0.00 0.00 0.00 49 1010.4
20260509204004 31 218 3.2 9.7 0.00 0.00 0.00 47 1010.3
20260509203504 31 183 1.6 11.3 0.00 0.00 0.00 48 1010.4
20260509203004 31 169 4.8 11.3 0.00 0.00 0.00 47 1010.5
20260509202504 31 169 6.4 17.7 0.00 0.00 0.00 47 1010.5
20260509202004 31 192 6.4 17.7 0.00 0.00 0.00 46 1010.7
20260509201504 31 201 4.8 17.7 0.00 0.00 0.00 50 1010.8
20260509201004 31 187 4.8 14.5 0.00 0.00 0.00 50 1010.8
20260509200504 31 194 3.2 11.3 0.00 0.00 0.00 50 1010.9
20260509200004 31 178 6.4 16.1 0.00 0.00 0.00 52 1010.9
20260509195504 30 168 8.0 16.1 0.00 0.00 0.00 50 1011.1
20260509195004 30 166 8.0 20.9 0.00 0.00 0.00 50 1011.2
20260509194505 30 173 6.4 20.9 0.00 0.00 0.00 51 1011.2
20260509194004 30 185 3.2 14.5 0.00 0.00 0.00 51 1011.4
20260509193504 30 196 1.6 14.5 0.00 0.00 0.00 52 1011.5
20260509193004 30 173 4.8 17.7 0.00 0.00 0.00 54 1011.6
20260509192504 30 176 6.4 17.7 0.00 0.00 0.00 53 1011.7
20260509192005 30 179 6.4 17.7 0.00 0.00 0.00 52 1011.7
20260509191504 30 169 8.0 17.7 0.00 0.00 0.00 54 1011.7
20260509191004 30 165 4.8 16.1 0.00 0.00 0.00 53 1011.7
20260509190504 30 160 6.4 19.3 0.00 0.00 0.00 56 1011.7
20260509190004 30 161 9.7 19.3 0.00 0.00 0.00 55 1011.8
20260509185504 30 169 8.0 16.1 0.00 0.00 0.00 55 1011.7
20260509185004 30 170 6.4 16.1 0.00 0.00 0.00 55 1011.9
20260509184504 30 164 6.4 16.1 0.00 0.00 0.00 56 1012.0
20260509184004 29 169 4.8 17.7 0.00 0.00 0.00 55 1011.9
20260509183504 30 193 3.2 17.7 0.00 0.00 0.00 55 1012.0
20260509183004 30 202 3.2 16.1 0.00 0.00 0.00 55 1012.2
20260509182503 29 184 1.6 16.1 0.00 0.00 0.00 57 1012.4
20260509182004 28 164 1.6 12.9 0.00 0.00 0.00 57 1012.3
20260509181505 28 194 1.6 17.7 0.00 0.00 0.00 57 1012.5
20260509181003 28 194 1.6 17.7 0.00 0.00 0.00 57 1012.7
20260509180004 28 0 0.0 1.6 0.00 0.00 0.00 61 1012.7
20260509175505 28 188 1.6 11.3 0.00 0.00 0.00 63 1012.7
20260509175004 28 188 1.6 11.3 0.00 0.00 0.00 61 1012.8
20260509174504 28 0 0.0 1.6 0.00 0.00 0.00 63 1012.9
20260509173503 27 0 0.0 1.6 0.00 0.00 0.00 64 1013.0
20260509172504 27 0 0.0 1.6 0.00 0.00 0.00 67 1013.0
20260509172004 26 0 0.0 0.0 0.00 0.00 0.00 68 1013.1
20260509171004 26 0 0.0 0.0 0.00 0.00 0.00 72 1013.4
20260509170504 26 0 0.0 0.0 0.00 0.00 0.00 71 1013.4
20260509170004 25 0 0.0 11.3 0.00 0.00 0.00 73 1013.4
20260509165504 25 0 0.0 11.3 0.00 0.00 0.00 72 1013.4
20260509164505 25 218 1.6 11.3 0.00 0.00 0.00 72 1013.4
20260509164004 25 214 1.6 11.3 0.00 0.00 0.00 74 1013.5
20260509163504 25 0 0.0 1.6 0.00 0.00 0.00 74 1013.4
20260509162004 24 0 0.0 0.0 0.00 0.00 0.00 76 1013.5
20260509161504 24 0 0.0 9.7 0.00 0.00 0.00 77 1013.4
20260509161004 23 208 1.6 11.3 0.00 0.00 0.00 77 1013.4
20260509160004 23 0 0.0 9.7 0.00 0.00 0.00 79 1013.3
20260509155504 23 0 0.0 0.0 0.00 0.00 0.00 80 1013.4
20260509154504 22 182 1.6 9.7 0.00 0.00 0.00 81 1013.5
20260509154003 22 168 3.2 11.3 0.00 0.00 0.00 83 1013.5
20260509153504 22 163 1.6 11.3 0.00 0.00 0.00 83 1013.5
20260509153004 22 0 0.0 1.6 0.00 0.00 0.00 83 1013.6
20260509152504 22 0 0.0 0.0 0.00 0.00 0.00 84 1013.7
20260509152004 22 0 0.0 0.0 0.00 0.00 0.00 84 1013.7
20260509151504 21 0 0.0 0.0 0.00 0.00 0.00 85 1013.7
20260509151004 21 0 0.0 0.0 0.00 0.00 0.00 86 1013.8
20260509150504 21 0 0.0 0.0 0.00 0.00 0.00 85 1013.8
20260509145503 21 0 0.0 0.0 0.00 0.00 0.00 87 1014.1
20260509145004 20 0 0.0 0.0 0.00 0.00 0.00 89 1014.0
20260509144504 20 0 0.0 0.0 0.00 0.00 0.00 89 1014.0
20260509144003 20 0 0.0 0.0 0.00 0.00 0.00 92 1014.1
20260509143505 19 0 0.0 0.0 0.00 0.00 0.00 92 1014.1
20260509142003 18 0 0.0 0.0 0.00 0.00 0.00 96 1013.8
20260509141504 18 0 0.0 0.0 0.00 0.00 0.00 96 1013.7
20260509141003 18 0 0.0 0.0 0.00 0.00 0.00 97 1013.7
20260509140503 17 0 0.0 0.0 0.00 0.00 0.00 96 1013.6
20260509140005 17 0 0.0 0.0 0.00 0.00 0.00 97 1013.6
20260509135504 17 0 0.0 0.0 0.00 0.00 0.00 97 1013.8
20260509135004 17 0 0.0 0.0 0.00 0.00 0.00 97 1013.7
20260509134505 17 0 0.0 0.0 0.00 0.00 0.00 97 1013.6
20260509134004 17 0 0.0 0.0 0.00 0.00 0.00 96 1013.6
20260509133503 17 0 0.0 0.0 0.00 0.00 0.00 96 1013.6
20260509133004 17 0 0.0 0.0 0.00 0.00 0.00 97 1013.8
20260509132503 17 0 0.0 0.0 0.00 0.00 0.00 96 1013.6
20260509131004 16 0 0.0 0.0 0.00 0.00 0.00 96 1013.3
20260509130504 16 0 0.0 0.0 0.00 0.00 0.00 96 1013.3
20260509130004 16 0 0.0 0.0 0.00 0.00 0.00 96 1013.3
20260509125504 16 0 0.0 0.0 0.00 0.00 0.00 96 1013.4
20260509125004 16 0 0.0 0.0 0.00 0.00 0.00 96 1013.2
20260509123504 16 0 0.0 0.0 0.00 0.00 0.00 96 1012.9
20260509123003 16 0 0.0 0.0 0.00 0.00 0.00 96 1012.9
20260509122503 16 0 0.0 0.0 0.00 0.00 0.00 96 1012.7
20260509122004 16 0 0.0 0.0 0.00 0.00 0.00 96 1012.7
20260509121504 16 0 0.0 0.0 0.00 0.00 0.00 96 1012.7
20260509121003 15 0 0.0 0.0 0.00 0.00 0.00 96 1012.6
20260509120504 16 0 0.0 0.0 0.00 0.00 0.00 96 1012.6
20260509120004 16 0 0.0 0.0 0.00 0.00 0.00 96 1012.6
20260509115504 16 0 0.0 0.0 0.00 0.00 0.00 96 1012.5
20260509115003 16 0 0.0 0.0 0.00 0.00 0.00 96 1012.5
20260509114504 16 0 0.0 0.0 0.00 0.00 0.00 95 1012.4
20260509114004 16 0 0.0 0.0 0.00 0.00 0.00 95 1012.3
20260509113004 15 0 0.0 6.4 0.00 0.00 0.00 95 1012.3
20260509112503 15 0 0.0 0.0 0.00 0.00 0.00 95 1012.3
20260509111504 16 0 0.0 0.0 0.00 0.00 0.00 94 1012.5
20260509111004 16 0 0.0 0.0 0.00 0.00 0.00 94 1012.5
20260509110503 16 0 0.0 0.0 0.00 0.00 0.00 94 1012.6
20260509110006 16 0 0.0 0.0 0.00 0.00 0.00 94 1012.7
20260509105506 16 0 0.0 0.0 0.00 0.00 0.00 94 1012.6
20260509105006 16 0 0.0 0.0 0.00 0.00 0.00 94 1012.6
20260509104007 16 0 0.0 0.0 0.00 0.00 0.00 94 1012.6
20260509103006 16 0 0.0 0.0 0.00 0.00 0.00 94 1012.7
20260509102506 16 0 0.0 0.0 0.00 0.00 0.00 94 1012.8
20260509102006 16 0 0.0 0.0 0.00 0.00 0.00 93 1012.7
20260509101506 16 0 0.0 0.0 0.00 0.00 0.00 94 1012.7
20260509101006 16 0 0.0 0.0 0.00 0.00 0.00 94 1012.8
20260509100507 16 0 0.0 0.0 0.00 0.00 0.00 94 1012.8
20260509100006 16 0 0.0 0.0 0.00 0.00 0.00 93 1012.8
20260509095506 16 0 0.0 0.0 0.00 0.00 0.00 93 1012.8
20260509095005 16 0 0.0 0.0 0.00 0.00 0.00 93 1012.9
20260509094006 16 0 0.0 0.0 0.00 0.00 0.00 93 1012.7
20260509093506 16 0 0.0 0.0 0.00 0.00 0.00 93 1012.5
20260509093006 16 0 0.0 0.0 0.00 0.00 0.00 93 1012.4
20260509091006 17 0 0.0 0.0 0.00 0.00 0.00 91 1012.8
20260509090007 17 0 0.0 0.0 0.00 0.00 0.00 92 1012.6
20260509085506 17 0 0.0 0.0 0.00 0.00 0.00 91 1012.3
20260509085006 17 0 0.0 0.0 0.00 0.00 0.00 92 1012.4
20260509084007 17 0 0.0 0.0 0.00 0.00 0.00 93 1012.3
20260509083506 17 0 0.0 0.0 0.00 0.00 0.00 93 1012.3
20260509083007 16 0 0.0 0.0 0.00 0.00 0.00 93 1012.1
20260509082506 16 0 0.0 0.0 0.00 0.00 0.00 93 1012.3
20260509082006 16 0 0.0 0.0 0.00 0.00 0.00 93 1012.4
20260509081506 16 0 0.0 0.0 0.00 0.00 0.00 93 1012.5
20260509081007 16 0 0.0 0.0 0.00 0.00 0.00 92 1012.7
20260509080506 16 0 0.0 0.0 0.00 0.00 0.00 92 1012.7
20260509075006 17 0 0.0 0.0 0.00 0.00 0.00 91 1012.8
20260509074507 17 0 0.0 0.0 0.00 0.00 0.00 91 1012.8
20260509074006 17 0 0.0 0.0 0.00 0.00 0.00 91 1012.7
20260509073508 17 0 0.0 0.0 0.00 0.00 0.00 91 1012.8
20260509073006 17 0 0.0 0.0 0.00 0.00 0.00 92 1012.9
20260509072505 17 0 0.0 0.0 0.00 0.00 0.00 92 1012.4
20260509072005 17 0 0.0 0.0 0.00 0.00 0.00 92 1012.4
20260509071506 17 0 0.0 0.0 0.00 0.00 0.00 93 1012.5
20260509071006 17 0 0.0 0.0 0.00 0.00 0.00 92 1012.1
20260509070506 17 0 0.0 0.0 0.00 0.00 0.00 92 1011.8
20260509070006 17 0 0.0 0.0 0.00 0.00 0.00 91 1011.8
20260509065505 17 0 0.0 0.0 0.00 0.00 0.00 91 1011.7
20260509065005 17 0 0.0 0.0 0.00 0.00 0.00 91 1011.7
20260509064506 17 0 0.0 0.0 0.00 0.00 0.00 91 1011.7
20260509064006 17 0 0.0 0.0 0.00 0.00 0.00 90 1011.7
20260509063006 17 0 0.0 0.0 0.00 0.00 0.00 90 1011.6
20260509062005 18 0 0.0 0.0 0.00 0.00 0.00 90 1011.4
20260509061507 18 0 0.0 0.0 0.00 0.00 0.00 90 1011.4